User: anonymous   Login
Location: Paris
(48.6709°N, 2.3750°E)
Time: 03:42:47
(UTC+01:00)
Language:

ISS - Orbit

View from above orbital plane
View from above orbital plane
View from above satellite
View from above satellite

Ground track
Ground track

The orbit data is extracted from the following two-line orbital elements,

1 25544U 98067A   22330.87101622  .00011829  00000-0  21297-3 0  9992
2 25544  51.6440 250.6649 0007119 117.3865 352.3264 15.50246738370414
Epoch (UTC): 26 November 2022 20:54:15
Eccentricity: 0.0007119
inclination: 51.6440°
perigee height: 411 km
apogee height: 421 km
right ascension of ascending node: 250.6649°
argument of perigee: 117.3865°
revolutions per day: 15.50246738
mean anomaly at epoch: 352.3264°
orbit number at epoch: 37041

The dashed part of the orbit path shows where the satellite is in the earth's shadow,  

DLR